Find Kosmos-621

NORAD ID: 6989 Int'l Des: 1973-104 Owner: GUKOSR Country: SU operational
LEOCIRCULAR

現在のビュー

3D地球を読み込み中...

Kosmos-621について

説明を読み込み中...

次回通過

Passes for default location (London). Set your location on the main map for personalized predictions.

高度履歴

Loading altitude history...

軌道要素

1 6989U 73104E 26150.38444346 -.00000015 00000-0 69995-5 0 9997
2 6989 74.0267 129.9896 0050917 232.4343 282.3956 12.54677217402022
Epoch: May 30, 2026 • Age: 8 hours

現在のステータス

高度 1423.0 km
速度 7.16 km/s
衛星直下点 0.48°N, 165.99°E
タイプ other

Most Searched